User: anonymous   Login
Location: Dob?e?
(49.9411°N, 15.1496°E)
Time: 12:53:38
(UTC+00:00)
Language:

DELFI C3 - Orbit

View from above orbital plane
View from above orbital plane
View from above satellite
View from above satellite

Ground track
Ground track

The orbit data is extracted from the following two-line orbital elements,

1 32789U 08021G   21295.64184355  .00003161  00000-0  19990-3 0  9997
2 32789  97.3657 326.0872 0012978  68.8371 291.4244 15.09647111736014
Epoch (UTC): 22 October 2021 15:24:15
Eccentricity: 0.0012978
inclination: 97.3657°
perigee height: 528 km
apogee height: 546 km
right ascension of ascending node: 326.0872°
argument of perigee: 68.8371°
revolutions per day: 15.09647111
mean anomaly at epoch: 291.4244°
orbit number at epoch: 73601

The dashed part of the orbit path shows where the satellite is in the earth's shadow,  

DLR